Lid_Strength_Index
-1 -1 -1 -1 -1 -1 -1 -1 -0 0 1 1 1 1 1 1 1 2 5 2 1 -0 1 3 4 4 6 8 7 8 12 14 12 12 11 9 9 8 6 7 7 6 6 4 3
-0 -1 -1 -1 -1 -1 -1 -1 -1 -0 1 1 1 1 1 1 2 4 1 -0 -0 -0 3 4 5 5 9 9 9 11 14 13 10 11 10 9 8 7 8 8 9 8 5 4 3
-1 -0 -1 -1 -1 -1 -1 -1 -1 -1 0 1 1 1 1 2 7 7 -0 0 -0 1 2 3 4 7 9 10 10 11 12 11 9 9 9 9 9 8 8 10 8 8 6 4 4
-1 -1 -0 -1 -1 -1 -1 -1 -1 -1 -1 0 1 1 2 3 12 4 0 -1 -1 2 3 4 6 9 11 12 11 12 10 9 8 8 8 9 8 8 8 7 5 5 4 4 4
-2 -2 -1 -1 -1 -1 -1 -1 -1 -1 -1 -1 1 2 3 7 7 3 1 -0 1 3 4 5 6 8 11 11 11 12 11 8 8 8 8 8 9 10 9 7 5 4 4 5 4
-2 -2 -2 -1 -1 -1 -1 -1 -1 -1 -1 -1 -1 0 5 12 5 2 2 2 2 4 3 4 5 6 9 10 11 11 10 9 8 8 8 9 9 9 8 7 6 5 5 5 5
-2 -2 -2 -2 -0 -1 -1 -1 -1 -2 -1 -0 0 1 6 9 4 3 3 3 2 3 5 3 3 6 8 10 9 10 12 10 9 8 10 9 11 9 9 7 6 6 6 5 5
-2 -2 -2 -2 -1 -1 -1 -1 -1 -1 -1 -2 -0 4 8 3 4 4 4 4 2 2 3 3 2 5 8 8 10 12 12 14 11 9 9 10 14 10 8 8 8 8 8 8 7
-1 -2 -2 -2 -1 -1 -1 -1 -1 -1 -2 -1 3 7 10 2 5 4 4 5 3 3 3 2 5 7 8 11 13 14 17 15 13 9 10 10 12 10 9 9 8 9 9 9 8
-1 -2 -2 -2 -2 -1 -1 -1 -0 -1 1 2 2 8 8 8 5 4 3 2 4 4 5 6 9 12 12 14 17 16 15 15 14 13 11 11 11 10 11 11 10 11 10 10 9
-2 -2 -2 -2 -2 -2 -0 1 4 5 4 7 8 8 6 5 4 5 2 3 4 6 11 9 12 14 13 12 13 13 15 16 16 13 14 13 13 11 10 12 11 11 11 11 10
-2 -2 -2 -2 -2 -1 0 4 4 3 8 4 5 6 5 4 7 6 2 7 8 11 9 11 14 12 10 11 14 15 17 17 15 13 14 15 14 13 12 12 11 11 11 11 11
-2 -1 -2 -2 -1 -0 2 4 3 2 8 7 5 6 6 5 7 7 4 6 9 11 11 12 13 9 10 11 13 15 17 17 17 15 15 16 17 15 12 12 12 11 10 10 10
-1 -1 -2 -1 1 1 3 1 2 1 12 11 8 6 5 5 8 5 3 6 9 11 10 11 9 10 11 13 12 15 13 13 14 16 19 16 22 18 16 14 13 12 11 10 10
-1 -1 -2 -1 2 3 2 1 2 3 20 10 9 3 4 7 8 7 3 6 10 10 10 12 11 11 12 12 10 13 11 12 12 15 17 19 19 19 16 15 13 11 11 11 10
-1 -1 -1 0 1 1 0 2 4 13 19 13 8 9 9 8 8 7 7 5 7 10 10 11 8 9 10 9 9 9 11 12 14 15 20 17 18 21 17 14 13 11 11 10 11
-1 -1 0 1 4 -0 2 5 14 17 11 13 12 10 10 11 10 9 10 11 12 15 15 11 11 10 8 11 10 11 13 19 20 20 22 17 17 17 15 14 13 11 11 10 10
-1 -1 0 1 -0 1 3 10 17 15 13 10 10 10 13 11 11 10 11 13 10 12 13 16 17 11 9 10 12 12 12 17 21 21 21 17 19 18 13 12 11 11 10 10 9
-1 2 2 1 1 3 8 15 15 14 12 13 11 13 13 11 11 11 12 12 11 11 14 15 15 10 9 9 9 13 14 12 16 22 22 19 18 16 13 13 13 11 11 10 10
2 3 3 1 1 4 12 15 13 10 10 11 14 12 15 13 13 13 13 11 11 9 10 12 16 12 10 9 9 11 9 16 15 23 25 20 20 18 16 14 13 12 11 11 11
4 7 3 1 4 8 16 14 11 9 9 12 13 14 13 13 13 13 13 11 9 10 9 11 13 14 11 13 13 12 14 13 13 17 22 24 20 16 15 14 13 13 11 11 11
7 9 3 3 11 13 16 15 10 10 9 10 11 12 13 12 13 13 13 11 9 8 11 10 12 16 14 12 11 10 12 12 16 18 17 18 18 14 14 13 13 12 12 12 10
8 8 3 5 17 14 11 12 10 11 11 11 12 11 11 13 15 12 12 10 9 9 10 9 14 17 16 13 13 13 11 11 12 14 16 19 18 12 12 12 13 12 13 12 11
9 11 8 9 13 14 14 18 14 9 10 10 11 10 12 13 11 14 13 10 9 10 8 8 12 14 17 15 13 15 13 11 12 16 16 15 15 14 14 13 12 12 12 11 10
12 12 15 12 12 17 14 13 15 15 10 9 11 11 12 16 13 13 12 11 10 9 9 9 15 13 12 12 12 12 13 12 14 13 16 14 14 12 11 12 11 11 11 11 10
13 12 14 15 13 12 16 16 13 15 11 11 12 10 12 15 13 16 12 13 13 11 11 11 14 13 14 12 13 13 12 12 12 12 12 12 13 10 10 10 10 10 9 9 10
9 9 11 13 15 15 15 15 11 10 10 9 9 10 11 11 10 10 10 9 11 12 12 12 13 14 17 13 14 16 13 13 12 11 11 14 11 8 10 11 10 10 9 9 9